TimeIST,TemperatureF,Dew PointF,Humidity,Sea Level PressureIn,VisibilityMPH,Wind Direction,Wind SpeedMPH,Gust SpeedMPH,PrecipitationIn,Events,Conditions,WindDirDegrees,DateUTC
12:10 AM,82.4,77.0,84,29.71,3.7,WSW,5.8,-,N/A,,Mostly Cloudy,240,2013-08-19 18:40:00
12:40 AM,82.4,77.0,84,29.71,3.7,WSW,4.6,-,N/A,,Mostly Cloudy,240,2013-08-19 19:10:00
1:10 AM,82.4,77.0,84,29.68,3.7,SW,6.9,-,N/A,,Mostly Cloudy,230,2013-08-19 19:40:00
1:40 AM,82.4,77.0,84,29.68,3.7,SW,6.9,-,N/A,,Scattered Clouds,230,2013-08-19 20:10:00
2:10 AM,82.4,77.0,84,29.68,3.7,SW,6.9,-,N/A,,Scattered Clouds,230,2013-08-19 20:40:00
2:30 AM,82,77,80,29.70,2,SW,2.3,,,,Scattered Clouds,230,2013-08-19 21:00:00
2:40 AM,82.4,77.0,84,29.68,3.7,WSW,8.1,-,N/A,,Mostly Cloudy,240,2013-08-19 21:10:00
3:10 AM,82.4,75.2,79,29.68,3.7,SW,6.9,-,N/A,,Mostly Cloudy,230,2013-08-19 21:40:00
3:40 AM,82.4,75.2,79,29.68,3.7,SSW,6.9,-,N/A,,Mostly Cloudy,200,2013-08-19 22:10:00
4:10 AM,80.6,73.4,79,29.68,3.7,SW,6.9,-,N/A,,Mostly Cloudy,220,2013-08-19 22:40:00
4:40 AM,80.6,73.4,79,29.68,3.7,SW,8.1,-,N/A,,Mostly Cloudy,220,2013-08-19 23:10:00
5:10 AM,80.6,73.4,79,29.68,3.7,SW,9.2,-,N/A,,Mostly Cloudy,230,2013-08-19 23:40:00
5:30 AM,81,75,77,29.72,2,West,2.3,,,,Partly Cloudy,270,2013-08-20 00:00:00
5:40 AM,80.6,73.4,79,29.71,3.7,SW,8.1,-,N/A,,Mostly Cloudy,230,2013-08-20 00:10:00
6:40 AM,80.6,73.4,79,29.71,3.1,SW,6.9,-,N/A,,Haze,220,2013-08-20 01:10:00
7:10 AM,80.6,73.4,79,29.71,3.1,SW,5.8,-,N/A,,Haze,220,2013-08-20 01:40:00
7:40 AM,82.4,73.4,74,29.74,3.1,SW,8.1,-,N/A,,Haze,230,2013-08-20 02:10:00
8:10 AM,84.2,71.6,66,29.74,3.1,WSW,12.7,-,N/A,,Haze,250,2013-08-20 02:40:00
8:30 AM,86,70,49,29.76,6,NW,3.5,,,,Scattered Clouds,320,2013-08-20 03:00:00
8:40 AM,86.0,69.8,58,29.74,3.7,West,12.7,-,N/A,,Mostly Cloudy,260,2013-08-20 03:10:00
9:10 AM,86.0,69.8,58,29.74,3.7,WSW,16.1,-,N/A,,Mostly Cloudy,250,2013-08-20 03:40:00
9:40 AM,87.8,71.6,58,29.74,3.7,WSW,13.8,-,N/A,,Mostly Cloudy,250,2013-08-20 04:10:00
10:10 AM,87.8,71.6,58,29.71,4.3,WSW,12.7,-,N/A,,Scattered Clouds,250,2013-08-20 04:40:00
10:40 AM,89.6,71.6,55,29.71,4.3,West,12.7,-,N/A,,Scattered Clouds,260,2013-08-20 05:10:00
11:10 AM,89.6,69.8,52,29.71,4.3,West,12.7,-,N/A,,Scattered Clouds,260,2013-08-20 05:40:00
11:30 AM,91,70,41,29.74,6,West,6.9,,,,Scattered Clouds,270,2013-08-20 06:00:00
11:40 AM,89.6,71.6,55,29.71,4.3,WSW,13.8,-,N/A,,Scattered Clouds,250,2013-08-20 06:10:00
12:10 PM,89.6,69.8,52,29.68,4.3,WSW,17.3,-,N/A,,Scattered Clouds,250,2013-08-20 06:40:00
12:40 PM,89.6,71.6,55,29.68,4.3,West,13.8,25.3,N/A,,Scattered Clouds,260,2013-08-20 07:10:00
1:10 PM,91.4,71.6,52,29.65,4.3,West,13.8,-,N/A,,Scattered Clouds,270,2013-08-20 07:40:00
1:40 PM,91.4,71.6,52,29.65,4.3,West,15.0,-,N/A,,Scattered Clouds,270,2013-08-20 08:10:00
2:10 PM,91.4,71.6,52,29.62,5.0,West,13.8,-,N/A,,Scattered Clouds,280,2013-08-20 08:40:00
2:30 PM,94,72,40,29.66,6,WNW,5.8,,,,Partly Cloudy,290,2013-08-20 09:00:00
2:40 PM,93.2,71.6,49,29.62,5.0,West,13.8,-,N/A,,Scattered Clouds,260,2013-08-20 09:10:00
3:10 PM,93.2,71.6,49,29.59,5.0,West,11.5,-,N/A,,Scattered Clouds,260,2013-08-20 09:40:00
3:40 PM,93.2,71.6,49,29.59,5.0,SW,9.2,-,N/A,,Scattered Clouds,220,2013-08-20 10:10:00
4:10 PM,91.4,71.6,52,29.59,4.3,SW,9.2,-,N/A,,Mostly Cloudy,230,2013-08-20 10:40:00
4:40 PM,91.4,71.6,52,29.59,4.3,SW,6.9,-,N/A,,Mostly Cloudy,220,2013-08-20 11:10:00
5:10 PM,91.4,71.6,52,29.59,4.3,SSW,6.9,-,N/A,,Mostly Cloudy,210,2013-08-20 11:40:00
5:30 PM,91,76,54,29.63,6,SW,3.5,,,,Partly Cloudy,230,2013-08-20 12:00:00
5:40 PM,91.4,71.6,52,29.59,3.7,SW,6.9,-,N/A,,Mostly Cloudy,230,2013-08-20 12:10:00
6:10 PM,89.6,71.6,55,29.62,3.7,SW,5.8,-,N/A,,Mostly Cloudy,230,2013-08-20 12:40:00
7:10 PM,78.8,75.2,89,29.65,1.9,Calm,Calm,-,N/A,Rain-Thunderstorm,Light Thunderstorms and Rain,0,2013-08-20 13:40:00
7:40 PM,78.8,75.2,89,29.68,1.9,Calm,Calm,-,N/A,Rain-Thunderstorm,Light Thunderstorms and Rain,0,2013-08-20 14:10:00
8:10 PM,80.6,73.4,79,29.68,1.9,ESE,4.6,-,N/A,Rain-Thunderstorm,Light Thunderstorms and Rain,120,2013-08-20 14:40:00
8:40 PM,80.6,73.4,79,29.68,1.9,South,6.9,-,N/A,Rain-Thunderstorm,Light Thunderstorms and Rain,180,2013-08-20 15:10:00
9:10 PM,78.8,73.4,83,29.68,2.5,South,5.8,-,N/A,,Haze,180,2013-08-20 15:40:00
9:40 PM,80.6,75.2,84,29.71,2.5,South,6.9,-,N/A,,Haze,190,2013-08-20 16:10:00
10:10 PM,80.6,75.2,84,29.71,2.5,South,8.1,-,N/A,,Haze,190,2013-08-20 16:40:00
11:10 PM,80.6,75.2,84,29.71,3.1,South,2.3,-,N/A,,Haze,170,2013-08-20 17:40:00
11:40 PM,80.6,73.4,79,29.68,3.1,SSW,4.6,-,N/A,,Haze,200,2013-08-20 18:10:00